Simultaneous Nadir Overpasses (SNOs) Predictions

Prediction of SNOs between AQUA and NPP Satellite Orbit:

Table of predicted SNOs for the next 14.0 days since TLE Epoch: 4/5/2014
Index Date (AQUA) Time (AQUA) Lat,Lon (AQUA) SZA (AQUA ) Date (NPP) Time (NPP) Lat,Lon (NPP) SZA (NPP ) Distance(km) Time Diff (sec)
1 04/06/2014 11:40:10 -68.14, 49.93 80.77 04/06/2014 11:39:45 -68.14, 49.94 80.75 0.41 25
2 04/06/2014 12:28:49 70.69,-139.03 96.64 04/06/2014 12:29:41 70.68,-139.08 96.60 2.18 52
3 04/09/2014 03:07:42 66.23, -3.89 100.14 04/09/2014 03:06:35 66.24, -3.85 100.20 2.36 67
4 04/09/2014 03:56:10 -69.59, 167.65 83.25 04/09/2014 03:56:19 -69.60, 167.70 83.28 1.88 9
5 04/11/2014 19:23:39 67.82, 113.70 97.56 04/11/2014 19:23:07 67.83, 113.75 97.57 2.51 32
6 04/11/2014 20:12:26 -70.10, -75.76 84.77 04/11/2014 20:13:11 -70.09, -75.81 84.79 2.33 45
7 04/14/2014 10:51:26 -65.13, 59.19 80.74 04/14/2014 10:50:14 -65.14, 59.21 80.67 1.24 72
8 04/14/2014 11:39:40 69.10,-128.84 95.28 04/14/2014 11:39:44 69.11,-128.78 95.25 2.40 4
9 04/14/2014 12:23:48 -81.85, 107.85 102.70 04/14/2014 12:25:01 -81.26, 107.98 102.98 65.66 73
10 04/17/2014 03:07:23 -66.55, 176.47 83.11 04/17/2014 03:06:48 -66.55, 176.46 83.06 0.52 35




NCC Satellite Simultaneous Nadir Overpasses (SNOs) Prediction Service
